IZ1MEU-13 Weather Reports


Display with metric or nautical units.
time (UTC)temp
F
wind
direction
speed
MPH
gust
MPH
rain 1hr
in
rain 24hr
in
rain mn
in
humidity
%
barometer
mb
20260508020421 53 0.0 0.0 0.00 0.00 0.00 61 1016.6
20260508014417 51 0.0 0.0 0.00 0.00 0.00 63 1016.6
20260508012413 51 0.0 0.0 0.00 0.00 0.00 63 1016.6
20260508010409 51 0.0 0.0 0.00 0.00 0.00 63 1016.7
20260508004406 51 0.0 0.0 0.00 0.00 0.00 63 1016.8
20260508002402 51 0.0 0.0 0.00 0.00 0.00 63 1016.7
20260508000358 51 0.0 0.0 0.00 0.00 0.00 63 1016.7
20260507234356 51 0.0 0.0 0.00 0.00 0.00 63 1016.9
20260507232351 51 0.0 0.0 0.00 0.00 0.00 64 1017.1
20260507230347 50 0.0 0.0 0.00 0.00 0.00 64 1017.1
20260507224343 51 0.0 0.0 0.00 0.00 0.00 64 1017.0
20260507222339 52 0.0 0.0 0.00 0.00 0.00 62 1017.0
20260507220336 52 0.0 0.0 0.00 0.00 0.00 62 1016.9
20260507214332 52 0.0 0.0 0.00 0.00 0.00 63 1016.6
20260507212328 52 0.0 0.0 0.00 0.00 0.00 64 1016.4
20260507210324 52 0.0 0.0 0.00 0.00 0.00 64 1016.3
20260507204320 52 0.0 0.0 0.00 0.00 0.00 64 1016.2
20260507202316 52 0.0 0.0 0.00 0.00 0.00 63 1016.2
20260507200312 52 0.0 0.0 0.00 0.00 0.00 65 1016.0
20260507194308 52 0.0 0.0 0.00 0.00 0.00 65 1015.7
20260507192306 52 0.0 0.0 0.00 0.00 0.00 64 1015.5
20260507190259 53 0.0 0.0 0.00 0.00 0.00 63 1015.3
20260507184255 54 0.0 0.0 0.00 0.00 0.00 60 1015.2
20260507182251 56 0.0 0.0 0.00 0.00 0.00 57 1015.3
20260507180246 58 0.0 0.0 0.00 0.00 0.00 52 1015.1
20260507174242 60 0.0 0.0 0.00 0.00 0.00 49 1015.0
20260507172238 63 0.0 0.0 0.00 0.00 0.00 46 1015.0
20260507170234 63 0.0 0.0 0.00 0.00 0.00 45 1014.9
20260507164229 64 0.0 0.0 0.00 0.00 0.00 45 1014.8
20260507162225 66 0.0 0.0 0.00 0.00 0.00 43 1014.8
20260507160221 67 0.0 0.0 0.00 0.00 0.00 45 1014.6
20260507154217 64 0.0 0.0 0.00 0.00 0.00 48 1014.7
20260507152212 65 0.0 0.0 0.00 0.00 0.00 46 1014.5
20260507150208 68 0.0 0.0 0.00 0.00 0.00 45 1014.5
20260507144204 64 0.0 0.0 0.00 0.00 0.00 48 1014.6
20260507142200 64 0.0 0.0 0.00 0.00 0.00 47 1014.7
20260507140156 64 0.0 0.0 0.00 0.00 0.00 46 1015.0
20260507134153 64 0.0 0.0 0.00 0.00 0.00 48 1015.1
20260507132149 65 0.0 0.0 0.00 0.00 0.00 46 1015.3
20260507130145 64 0.0 0.0 0.00 0.00 0.00 49 1015.3
20260507124141 62 0.0 0.0 0.00 0.00 0.00 51 1015.6
20260507122138 63 0.0 0.0 0.00 0.00 0.00 48 1015.6
20260507120134 62 0.0 0.0 0.00 0.00 0.00 52 1015.8
20260507114130 62 0.0 0.0 0.00 0.00 0.00 51 1015.9
20260507112127 62 0.0 0.0 0.00 0.00 0.00 52 1016.0
20260507110122 59 0.0 0.0 0.00 0.00 0.00 51 1016.3
20260507104119 61 0.0 0.0 0.00 0.00 0.00 53 1016.4
20260507102115 61 0.0 0.0 0.00 0.00 0.00 52 1016.5
20260507100111 60 0.0 0.0 0.00 0.00 0.00 57 1016.5
20260507094108 58 0.0 0.0 0.00 0.00 0.00 58 1016.6
20260507092104 58 0.0 0.0 0.00 0.00 0.00 56 1016.5
20260507090100 57 0.0 0.0 0.00 0.00 0.00 60 1016.6
20260507084056 57 0.0 0.0 0.00 0.00 0.00 60 1016.3
20260507082052 56 0.0 0.0 0.00 0.00 0.00 62 1016.3
20260507080048 55 0.0 0.0 0.00 0.00 0.00 64 1016.1
20260507074043 53 0.0 0.0 0.00 0.00 0.00 65 1016.0
20260507072039 52 0.0 0.0 0.00 0.00 0.00 67 1016.0
20260507070035 52 0.0 0.0 0.00 0.00 0.00 66 1015.8
20260507064031 51 0.0 0.0 0.00 0.00 0.00 67 1015.5
20260507062026 52 0.0 0.0 0.00 0.00 0.00 66 1015.5
20260507060022 52 0.0 0.0 0.00 0.00 0.00 66 1015.3
20260507054018 52 0.0 0.0 0.00 0.00 0.00 66 1015.0
20260507052013 52 0.0 0.0 0.00 0.00 0.00 66 1014.6
20260507050009 52 0.0 0.0 0.00 0.00 0.00 66 1014.4
20260507044005 52 0.0 0.0 0.00 0.00 0.00 65 1014.3
20260507042000 52 0.0 0.0 0.00 0.00 0.00 65 1014.2
20260507035956 52 0.0 0.0 0.00 0.00 0.00 65 1014.1
20260507033951 52 0.0 0.0 0.00 0.00 0.00 65 1014.1
20260507031947 52 0.0 0.0 0.00 0.00 0.00 65 1013.9
20260507025942 52 0.0 0.0 0.00 0.00 0.00 65 1013.9
20260507023938 52 0.0 0.0 0.00 0.00 0.00 65 1013.9
20260507021934 52 0.0 0.0 0.00 0.00 0.00 65 1013.9